| time (UTC) | temp C | wind direction | speed KPH | gust KPH | rain 1hr cm | rain 24hr cm | rain mn cm | humidity % | barometer mb |
| 20260510065413 | 8 | 59 | 0.0 | 0.0 | 0.03 | 0.79 | 0.18 | 94 | 1007.1 |
| 20260510064855 | 8 | 59 | 0.0 | 0.0 | 0.03 | 0.79 | 0.18 | 94 | 1007.2 |
| 20260510064538 | 8 | 59 | 0.0 | 0.0 | 0.03 | 0.79 | 0.18 | 94 | 1007.2 |
| 20260510063815 | 8 | 59 | 0.0 | 0.0 | 0.05 | 0.79 | 0.18 | 93 | 1007.1 |
| 20260510063237 | 9 | 59 | 0.0 | 0.0 | 0.10 | 0.79 | 0.18 | 93 | 1007.1 |
| 20260510062707 | 9 | 59 | 0.0 | 0.0 | 0.13 | 0.79 | 0.18 | 93 | 1007.1 |
| 20260510062145 | 9 | 59 | 0.0 | 0.0 | 0.13 | 0.79 | 0.18 | 93 | 1007.0 |
| 20260510061639 | 9 | 59 | 0.0 | 0.0 | 0.15 | 0.79 | 0.18 | 93 | 1007.1 |
| 20260510061331 | 9 | 59 | 0.0 | 0.0 | 0.18 | 0.79 | 0.18 | 93 | 1006.9 |
| 20260510060535 | 10 | 59 | 0.0 | 0.0 | 0.18 | 0.79 | 0.18 | 93 | 1006.8 |
| 20260510060001 | 10 | 59 | 0.0 | 0.0 | 0.15 | 0.76 | 0.15 | 93 | 1006.9 |
| 20260510055453 | 10 | 59 | 0.0 | 4.8 | 0.15 | 0.76 | 0.15 | 92 | 1006.8 |
| 20260510054924 | 10 | 59 | 0.0 | 8.0 | 0.15 | 0.76 | 0.15 | 92 | 1006.6 |
| 20260510054351 | 10 | 59 | 0.0 | 8.0 | 0.15 | 0.76 | 0.15 | 91 | 1006.5 |
| 20260510053824 | 11 | 331 | 0.0 | 0.0 | 0.13 | 0.74 | 0.13 | 91 | 1007.2 |
| 20260510053312 | 11 | 331 | 0.0 | 0.0 | 0.10 | 0.71 | 0.10 | 90 | 1007.8 |
| 20260510052750 | 11 | 331 | 0.0 | 0.0 | 0.05 | 0.66 | 0.05 | 89 | 1007.6 |
| 20260510052253 | 11 | 340 | 1.6 | 4.8 | 0.05 | 0.66 | 0.05 | 89 | 1007.6 |
| 20260510051827 | 12 | 321 | 0.0 | 0.0 | 0.00 | 0.61 | 0.00 | 88 | 1007.0 |
| 20260510051803 | 12 | 347 | 0.0 | 8.0 | 0.03 | 0.64 | 0.03 | 88 | 1006.9 |
| 20260510051739 | 12 | 248 | 0.0 | 0.0 | 0.00 | 0.61 | 0.00 | 89 | 1006.2 |
| 20260510051731 | 12 | 248 | 0.0 | 4.8 | 0.00 | 0.61 | 0.00 | 89 | 1006.3 |
| 20260510045549 | 12 | 247 | 0.0 | 4.8 | 0.00 | 0.61 | 0.00 | 91 | 1006.1 |
| 20260510044559 | 12 | 183 | 0.0 | 0.0 | 0.00 | 0.61 | 0.00 | 92 | 1006.2 |
| 20260510043759 | 13 | 183 | 0.0 | 0.0 | 0.00 | 0.61 | 0.00 | 91 | 1005.9 |
| 20260510043226 | 13 | 183 | 0.0 | 0.0 | 0.00 | 0.61 | 0.00 | 90 | 1005.4 |
| 20260510042707 | 13 | 183 | 0.0 | 0.0 | 0.00 | 0.61 | 0.00 | 90 | 1005.4 |
| 20260510042119 | 13 | 183 | 0.0 | 0.0 | 0.00 | 0.61 | 0.00 | 90 | 1005.4 |
| 20260510041612 | 13 | 183 | 0.0 | 1.6 | 0.00 | 0.61 | 0.00 | 89 | 1005.5 |
| 20260510040948 | 13 | 183 | 0.0 | 3.2 | 0.00 | 0.61 | 0.00 | 89 | 1005.3 |
| 20260510040446 | 13 | 183 | 1.6 | 4.8 | 0.00 | 0.61 | 0.00 | 90 | 1005.1 |
| 20260510035911 | 13 | 183 | 3.2 | 8.0 | 0.00 | 0.61 | 0.61 | 91 | 1005.0 |
| 20260510035333 | 12 | 183 | 4.8 | 8.0 | 0.00 | 0.61 | 0.61 | 92 | 1004.9 |
| 20260510034819 | 12 | 182 | 3.2 | 6.4 | 0.00 | 0.61 | 0.61 | 92 | 1004.9 |
| 20260510034140 | 12 | 183 | 4.8 | 6.4 | 0.00 | 0.61 | 0.61 | 91 | 1004.9 |
| 20260510033633 | 12 | 183 | 4.8 | 6.4 | 0.00 | 0.61 | 0.61 | 91 | 1005.0 |
| 20260510033334 | 12 | 183 | 4.8 | 6.4 | 0.00 | 0.61 | 0.61 | 90 | 1004.9 |
| 20260510032609 | 12 | 183 | 4.8 | 6.4 | 0.00 | 0.61 | 0.61 | 90 | 1004.9 |
| 20260510032111 | 13 | 182 | 4.8 | 8.0 | 0.00 | 0.61 | 0.61 | 90 | 1004.9 |
| 20260510031602 | 12 | 182 | 4.8 | 8.0 | 0.00 | 0.61 | 0.61 | 91 | 1004.8 |
| 20260510031107 | 12 | 182 | 4.8 | 8.0 | 0.00 | 0.61 | 0.61 | 92 | 1004.8 |
| 20260510030543 | 12 | 182 | 4.8 | 8.0 | 0.00 | 0.61 | 0.61 | 92 | 1004.8 |
| 20260510030045 | 12 | 182 | 1.6 | 6.4 | 0.00 | 0.61 | 0.61 | 93 | 1004.8 |
| 20260510025523 | 12 | 182 | 0.0 | 4.8 | 0.00 | 0.61 | 0.61 | 93 | 1004.9 |
| 20260510025024 | 12 | 182 | 0.0 | 0.0 | 0.00 | 0.61 | 0.61 | 93 | 1004.5 |
| 20260510024442 | 12 | 182 | 0.0 | 0.0 | 0.00 | 0.61 | 0.61 | 92 | 1004.5 |
| 20260510023857 | 12 | 182 | 0.0 | 0.0 | 0.00 | 0.61 | 0.61 | 92 | 1004.7 |
| 20260510023310 | 12 | 182 | 0.0 | 0.0 | 0.00 | 0.61 | 0.61 | 91 | 1004.5 |
| 20260510022726 | 12 | 182 | 0.0 | 0.0 | 0.00 | 0.61 | 0.61 | 91 | 1004.5 |
| 20260510022133 | 12 | 182 | 0.0 | 0.0 | 0.00 | 0.61 | 0.61 | 91 | 1004.6 |
| 20260510021553 | 12 | 182 | 1.6 | 4.8 | 0.00 | 0.61 | 0.61 | 91 | 1004.7 |
| 20260510021001 | 12 | 182 | 1.6 | 4.8 | 0.00 | 0.61 | 0.61 | 91 | 1004.7 |
| 20260510020415 | 12 | 182 | 3.2 | 6.4 | 0.00 | 0.61 | 0.61 | 91 | 1004.6 |
| 20260510015910 | 12 | 182 | 3.2 | 6.4 | 0.00 | 0.61 | 0.61 | 91 | 1004.5 |
| 20260510015411 | 12 | 182 | 3.2 | 6.4 | 0.00 | 0.61 | 0.61 | 91 | 1004.5 |
| 20260510014822 | 12 | 182 | 3.2 | 8.0 | 0.00 | 0.61 | 0.61 | 91 | 1004.6 |
| 20260510014251 | 12 | 182 | 3.2 | 8.0 | 0.00 | 0.61 | 0.61 | 91 | 1004.5 |
| 20260510013752 | 13 | 182 | 1.6 | 4.8 | 0.00 | 0.61 | 0.61 | 91 | 1004.5 |
| 20260510013447 | 13 | 182 | 3.2 | 6.4 | 0.00 | 0.61 | 0.61 | 91 | 1004.1 |
| 20260510012654 | 13 | 182 | 3.2 | 6.4 | 0.00 | 0.61 | 0.61 | 91 | 1004.1 |
| 20260510012409 | 12 | 182 | 3.2 | 6.4 | 0.00 | 0.61 | 0.61 | 92 | 1004.0 |
| 20260510011636 | 12 | 182 | 3.2 | 8.0 | 0.00 | 0.61 | 0.61 | 92 | 1004.0 |
| 20260510011138 | 12 | 182 | 3.2 | 8.0 | 0.00 | 0.61 | 0.61 | 92 | 1003.9 |
| 20260510010621 | 12 | 182 | 3.2 | 8.0 | 0.00 | 0.61 | 0.61 | 92 | 1003.8 |
| 20260510010104 | 12 | 178 | 3.2 | 8.0 | 0.00 | 0.61 | 0.61 | 93 | 1003.8 |
| 20260510005820 | 12 | 178 | 4.8 | 9.7 | 0.00 | 0.61 | 0.61 | 93 | 1003.9 |
| 20260510005058 | 12 | 178 | 4.8 | 9.7 | 0.00 | 0.61 | 0.61 | 94 | 1003.9 |
| 20260510004748 | 12 | 173 | 3.2 | 8.0 | 0.00 | 0.64 | 0.61 | 94 | 1003.9 |
| 20260510004232 | 12 | 173 | 3.2 | 8.0 | 0.00 | 0.64 | 0.61 | 94 | 1003.9 |
| 20260510003457 | 12 | 172 | 3.2 | 8.0 | 0.00 | 0.64 | 0.61 | 94 | 1003.8 |
| 20260510002927 | 12 | 172 | 1.6 | 9.7 | 0.00 | 0.66 | 0.61 | 95 | 1003.7 |
| 20260510002427 | 13 | 175 | 3.2 | 9.7 | 0.00 | 0.69 | 0.61 | 95 | 1003.8 |
| 20260510001857 | 12 | 180 | 4.8 | 9.7 | 0.00 | 0.69 | 0.61 | 95 | 1003.7 |
| 20260510001353 | 12 | 180 | 4.8 | 9.7 | 0.03 | 0.71 | 0.61 | 95 | 1003.6 |
| 20260510000851 | 12 | 184 | 3.2 | 9.7 | 0.05 | 0.74 | 0.61 | 95 | 1003.6 |
| 20260510000350 | 12 | 184 | 3.2 | 8.0 | 0.10 | 0.74 | 0.61 | 95 | 1003.5 |
| 20260509235814 | 12 | 184 | 4.8 | 8.0 | 0.15 | 0.74 | 0.61 | 95 | 1003.6 |
| 20260509235310 | 12 | 184 | 3.2 | 8.0 | 0.23 | 0.74 | 0.61 | 95 | 1003.5 |
| 20260509235039 | 12 | 184 | 3.2 | 6.4 | 0.30 | 0.76 | 0.61 | 95 | 1003.4 |
| 20260509234307 | 12 | 184 | 3.2 | 6.4 | 0.41 | 0.76 | 0.61 | 95 | 1003.3 |
| 20260509234021 | 12 | 205 | 1.6 | 6.4 | 0.56 | 0.76 | 0.61 | 95 | 1003.2 |
| 20260509233238 | 12 | 178 | 0.0 | 4.8 | 0.61 | 0.79 | 0.61 | 95 | 1003.3 |
| 20260509233006 | 12 | 178 | 0.0 | 0.0 | 0.61 | 0.79 | 0.61 | 95 | 1003.2 |
| 20260509232211 | 12 | 178 | 0.0 | 8.0 | 0.61 | 0.79 | 0.61 | 95 | 1003.3 |
| 20260509231715 | 12 | 126 | 0.0 | 1.6 | 0.58 | 0.76 | 0.58 | 94 | 1003.5 |
| 20260509231425 | 12 | 126 | 0.0 | 6.4 | 0.56 | 0.74 | 0.56 | 93 | 1004.0 |
| 20260509230659 | 12 | 287 | 1.6 | 6.4 | 0.53 | 0.71 | 0.53 | 93 | 1004.0 |
| 20260509230138 | 12 | 271 | 3.2 | 14.5 | 0.51 | 0.69 | 0.51 | 92 | 1004.3 |
| 20260509225621 | 12 | 221 | 4.8 | 19.3 | 0.46 | 0.64 | 0.46 | 90 | 1004.3 |
| 20260509225118 | 12 | 304 | 3.2 | 19.3 | 0.33 | 0.51 | 0.33 | 88 | 1004.1 |
| 20260509224545 | 13 | 265 | 3.2 | 30.6 | 0.28 | 0.46 | 0.28 | 85 | 1004.1 |
| 20260509224048 | 14 | 339 | 6.4 | 30.6 | 0.13 | 0.30 | 0.13 | 79 | 1004.3 |
| 20260509223746 | 16 | 300 | 4.8 | 24.1 | 0.03 | 0.20 | 0.03 | 73 | 1004.4 |
| 20260509223017 | 18 | 318 | 1.6 | 16.1 | 0.00 | 0.18 | 0.00 | 70 | 1004.0 |
| 20260509222453 | 18 | 171 | 6.4 | 22.5 | 0.00 | 0.18 | 0.00 | 66 | 1002.4 |
| 20260509221952 | 19 | 173 | 8.0 | 22.5 | 0.00 | 0.18 | 0.00 | 62 | 1002.0 |
| 20260509221442 | 19 | 163 | 6.4 | 16.1 | 0.00 | 0.18 | 0.00 | 60 | 1002.1 |
| 20260509220941 | 20 | 175 | 8.0 | 20.9 | 0.00 | 0.18 | 0.00 | 60 | 1002.0 |
| 20260509220413 | 20 | 180 | 8.0 | 20.9 | 0.00 | 0.18 | 0.00 | 58 | 1002.0 |
| 20260509215916 | 20 | 189 | 8.0 | 24.1 | 0.00 | 0.18 | 0.00 | 59 | 1002.1 |
| 20260509215400 | 20 | 188 | 8.0 | 24.1 | 0.00 | 0.18 | 0.00 | 58 | 1002.2 |
| 20260509214859 | 20 | 182 | 6.4 | 19.3 | 0.00 | 0.18 | 0.00 | 60 | 1002.1 |
| 20260509214332 | 20 | 214 | 9.7 | 22.5 | 0.00 | 0.18 | 0.00 | 59 | 1001.8 |
| 20260509214027 | 20 | 170 | 12.9 | 22.5 | 0.00 | 0.18 | 0.00 | 59 | 1001.8 |
| 20260509213515 | 20 | 204 | 12.9 | 37.0 | 0.00 | 0.18 | 0.00 | 59 | 1001.7 |
| 20260509212752 | 20 | 169 | 12.9 | 37.0 | 0.00 | 0.18 | 0.00 | 59 | 1001.7 |
| 20260509212256 | 20 | 172 | 9.7 | 19.3 | 0.00 | 0.18 | 0.00 | 60 | 1001.8 |
| 20260509211739 | 20 | 169 | 11.3 | 27.4 | 0.00 | 0.18 | 0.00 | 60 | 1001.9 |
| 20260509211242 | 20 | 181 | 12.9 | 27.4 | 0.00 | 0.18 | 0.00 | 59 | 1001.7 |
| 20260509210723 | 20 | 175 | 11.3 | 20.9 | 0.00 | 0.18 | 0.00 | 59 | 1002.1 |
| 20260509210214 | 20 | 190 | 9.7 | 19.3 | 0.00 | 0.18 | 0.00 | 58 | 1002.0 |
| 20260509205717 | 20 | 210 | 8.0 | 20.9 | 0.00 | 0.18 | 0.00 | 58 | 1002.3 |
| 20260509205209 | 20 | 171 | 8.0 | 20.9 | 0.00 | 0.18 | 0.00 | 57 | 1002.3 |
| 20260509204928 | 20 | 180 | 9.7 | 25.7 | 0.00 | 0.18 | 0.00 | 57 | 1002.5 |
| 20260509204152 | 20 | 180 | 11.3 | 25.7 | 0.00 | 0.18 | 0.00 | 57 | 1002.4 |
| 20260509203921 | 20 | 177 | 11.3 | 19.3 | 0.00 | 0.18 | 0.00 | 59 | 1002.4 |
| 20260509203128 | 20 | 180 | 11.3 | 25.7 | 0.00 | 0.18 | 0.00 | 60 | 1002.6 |
| 20260509202628 | 20 | 205 | 11.3 | 25.7 | 0.00 | 0.18 | 0.00 | 60 | 1002.6 |
| 20260509202113 | 20 | 186 | 11.3 | 20.9 | 0.00 | 0.18 | 0.00 | 59 | 1002.7 |
| 20260509201606 | 20 | 193 | 9.7 | 22.5 | 0.00 | 0.18 | 0.00 | 60 | 1003.0 |
| 20260509201106 | 20 | 174 | 9.7 | 22.5 | 0.00 | 0.18 | 0.00 | 60 | 1003.1 |
| 20260509200604 | 20 | 182 | 6.4 | 22.5 | 0.00 | 0.18 | 0.00 | 60 | 1003.0 |
| 20260509200104 | 20 | 191 | 8.0 | 22.5 | 0.00 | 0.18 | 0.00 | 61 | 1003.0 |
| 20260509195604 | 20 | 223 | 8.0 | 22.5 | 0.00 | 0.18 | 0.00 | 59 | 1003.0 |
| 20260509195324 | 20 | 188 | 8.0 | 24.1 | 0.00 | 0.18 | 0.00 | 59 | 1003.0 |
| 20260509194534 | 20 | 170 | 8.0 | 24.1 | 0.00 | 0.18 | 0.00 | 61 | 1003.1 |
| 20260509194520 | 20 | 185 | 11.3 | 25.7 | 0.00 | 0.18 | 0.00 | 63 | 1003.1 |
| 20260509193532 | 19 | 203 | 12.9 | 25.7 | 0.00 | 0.18 | 0.00 | 62 | 1003.1 |
| 20260509193002 | 19 | 184 | 12.9 | 29.0 | 0.00 | 0.18 | 0.00 | 61 | 1003.3 |
| 20260509192502 | 19 | 229 | 12.9 | 29.0 | 0.00 | 0.18 | 0.00 | 61 | 1003.2 |
| 20260509192002 | 19 | 209 | 11.3 | 19.3 | 0.00 | 0.18 | 0.00 | 60 | 1003.2 |
| 20260509191712 | 19 | 199 | 11.3 | 25.7 | 0.00 | 0.18 | 0.00 | 61 | 1003.4 |
| 20260509190931 | 19 | 186 | 12.9 | 25.7 | 0.00 | 0.18 | 0.00 | 62 | 1003.5 |
| 20260509190423 | 19 | 179 | 12.9 | 25.7 | 0.00 | 0.18 | 0.00 | 61 | 1003.6 |
| 20260509185914 | 19 | 168 | 11.3 | 22.5 | 0.00 | 0.18 | 0.00 | 61 | 1003.6 |
| 20260509185342 | 20 | 174 | 9.7 | 20.9 | 0.00 | 0.18 | 0.00 | 60 | 1003.8 |
| 20260509184810 | 19 | 173 | 8.0 | 20.9 | 0.00 | 0.18 | 0.00 | 60 | 1003.9 |
| 20260509184240 | 19 | 203 | 6.4 | 19.3 | 0.00 | 0.18 | 0.00 | 58 | 1003.8 |
| 20260509183708 | 20 | 182 | 8.0 | 24.1 | 0.00 | 0.18 | 0.00 | 59 | 1003.8 |
| 20260509183136 | 20 | 184 | 8.0 | 24.1 | 0.00 | 0.18 | 0.00 | 60 | 1003.9 |
| 20260509182558 | 20 | 190 | 6.4 | 16.1 | 0.00 | 0.18 | 0.00 | 61 | 1003.8 |
| 20260509182056 | 20 | 186 | 9.7 | 19.3 | 0.00 | 0.18 | 0.00 | 61 | 1003.7 |
| 20260509181559 | 19 | 190 | 9.7 | 22.5 | 0.00 | 0.18 | 0.00 | 62 | 1003.6 |
| 20260509181047 | 19 | 167 | 8.0 | 22.5 | 0.00 | 0.18 | 0.00 | 61 | 1003.9 |
| 20260509180543 | 19 | 178 | 8.0 | 22.5 | 0.00 | 0.18 | 0.00 | 62 | 1004.1 |
| 20260509180046 | 19 | 171 | 8.0 | 22.5 | 0.00 | 0.18 | 0.00 | 62 | 1004.0 |
| 20260509175520 | 18 | 171 | 9.7 | 19.3 | 0.00 | 0.18 | 0.00 | 66 | 1004.0 |
| 20260509174946 | 18 | 159 | 9.7 | 19.3 | 0.00 | 0.18 | 0.00 | 64 | 1004.0 |
| 20260509174418 | 18 | 175 | 9.7 | 17.7 | 0.00 | 0.18 | 0.00 | 65 | 1004.0 |
| 20260509174106 | 18 | 180 | 8.0 | 19.3 | 0.00 | 0.18 | 0.00 | 63 | 1004.0 |
| 20260509173316 | 18 | 180 | 9.7 | 20.9 | 0.00 | 0.18 | 0.00 | 67 | 1004.0 |
| 20260509172744 | 18 | 178 | 6.4 | 20.9 | 0.00 | 0.18 | 0.00 | 66 | 1004.0 |
| 20260509172212 | 18 | 178 | 8.0 | 19.3 | 0.00 | 0.18 | 0.00 | 67 | 1004.1 |
| 20260509171710 | 18 | 174 | 8.0 | 19.3 | 0.00 | 0.18 | 0.00 | 67 | 1004.1 |
| 20260509171654 | 18 | 196 | 6.4 | 17.7 | 0.00 | 0.18 | 0.00 | 65 | 1004.1 |
| 20260509170644 | 18 | 219 | 6.4 | 17.7 | 0.00 | 0.18 | 0.00 | 66 | 1004.4 |
| 20260509170114 | 18 | 179 | 4.8 | 17.7 | 0.00 | 0.18 | 0.00 | 64 | 1004.4 |
| 20260509165540 | 18 | 180 | 3.2 | 11.3 | 0.00 | 0.18 | 0.00 | 68 | 1004.6 |
| 20260509165012 | 18 | 82 | 6.4 | 17.7 | 0.00 | 0.18 | 0.00 | 68 | 1004.5 |
| 20260509164439 | 17 | 191 | 6.4 | 17.7 | 0.00 | 0.18 | 0.00 | 69 | 1004.5 |
| 20260509163937 | 17 | 170 | 6.4 | 17.7 | 0.00 | 0.18 | 0.00 | 68 | 1004.4 |
| 20260509163430 | 17 | 179 | 6.4 | 16.1 | 0.00 | 0.18 | 0.00 | 68 | 1004.0 |
| 20260509162935 | 17 | 151 | 4.8 | 16.1 | 0.00 | 0.18 | 0.00 | 72 | 1004.3 |
| 20260509162429 | 17 | 199 | 3.2 | 16.1 | 0.00 | 0.18 | 0.00 | 69 | 1004.6 |
| 20260509162158 | 17 | 239 | 3.2 | 8.0 | 0.00 | 0.18 | 0.00 | 73 | 1004.7 |
| 20260509161402 | 17 | 175 | 3.2 | 8.0 | 0.00 | 0.18 | 0.00 | 71 | 1004.9 |
| 20260509160848 | 16 | 310 | 1.6 | 8.0 | 0.00 | 0.18 | 0.00 | 71 | 1004.9 |
| 20260509160352 | 17 | 212 | 1.6 | 8.0 | 0.00 | 0.18 | 0.00 | 73 | 1005.0 |
| 20260509155818 | 16 | 213 | 0.0 | 3.2 | 0.00 | 0.18 | 0.00 | 73 | 1005.0 |
| 20260509155240 | 16 | 211 | 1.6 | 6.4 | 0.00 | 0.18 | 0.00 | 73 | 1005.0 |
| 20260509154654 | 16 | 211 | 3.2 | 14.5 | 0.00 | 0.18 | 0.00 | 74 | 1005.0 |
| 20260509154154 | 16 | 170 | 4.8 | 14.5 | 0.00 | 0.18 | 0.00 | 73 | 1005.0 |
| 20260509153608 | 16 | 175 | 4.8 | 14.5 | 0.00 | 0.18 | 0.00 | 73 | 1005.0 |
| 20260509153323 | 16 | 180 | 3.2 | 11.3 | 0.00 | 0.18 | 0.00 | 72 | 1005.0 |
| 20260509152759 | 16 | 212 | 3.2 | 9.7 | 0.00 | 0.18 | 0.00 | 76 | 1005.0 |
| 20260509152007 | 16 | 204 | 4.8 | 14.5 | 0.00 | 0.18 | 0.00 | 77 | 1004.9 |
| 20260509151506 | 16 | 175 | 6.4 | 16.1 | 0.00 | 0.18 | 0.00 | 80 | 1004.9 |
| 20260509151008 | 16 | 170 | 8.0 | 16.1 | 0.00 | 0.18 | 0.00 | 79 | 1004.7 |
| 20260509150444 | 16 | 165 | 4.8 | 14.5 | 0.00 | 0.18 | 0.00 | 81 | 1004.8 |
| 20260509150218 | 15 | 186 | 3.2 | 14.5 | 0.00 | 0.18 | 0.00 | 84 | 1004.9 |
| 20260509145427 | 15 | 201 | 1.6 | 6.4 | 0.00 | 0.18 | 0.00 | 85 | 1004.9 |
| 20260509144930 | 15 | 199 | 0.0 | 4.8 | 0.00 | 0.18 | 0.00 | 86 | 1004.8 |
| 20260509144419 | 14 | 198 | 0.0 | 3.2 | 0.00 | 0.18 | 0.00 | 87 | 1004.8 |
| 20260509143910 | 14 | 198 | 1.6 | 4.8 | 0.00 | 0.18 | 0.00 | 88 | 1004.9 |
| 20260509143346 | 14 | 198 | 1.6 | 6.4 | 0.00 | 0.18 | 0.00 | 88 | 1004.9 |
| 20260509142819 | 13 | 195 | 1.6 | 6.4 | 0.00 | 0.18 | 0.00 | 87 | 1004.9 |
| 20260509142322 | 13 | 175 | 1.6 | 3.2 | 0.00 | 0.18 | 0.00 | 88 | 1004.8 |
| 20260509141758 | 13 | 175 | 1.6 | 4.8 | 0.00 | 0.18 | 0.00 | 90 | 1004.8 |
| 20260509141258 | 13 | 175 | 0.0 | 4.8 | 0.00 | 0.18 | 0.00 | 90 | 1004.8 |
| 20260509140752 | 13 | 175 | 3.2 | 11.3 | 0.00 | 0.18 | 0.00 | 90 | 1004.7 |
| 20260509140257 | 13 | 174 | 4.8 | 11.3 | 0.00 | 0.18 | 0.00 | 90 | 1004.7 |
| 20260509135720 | 13 | 172 | 3.2 | 11.3 | 0.00 | 0.18 | 0.00 | 92 | 1004.7 |
| 20260509135245 | 13 | 159 | 3.2 | 8.0 | 0.00 | 0.18 | 0.00 | 93 | 1004.8 |
| 20260509134152 | 12 | 192 | 1.6 | 8.0 | 0.00 | 0.18 | 0.00 | 95 | 1004.7 |
| 20260509133652 | 12 | 190 | 1.6 | 8.0 | 0.00 | 0.18 | 0.00 | 95 | 1004.7 |
| 20260509133152 | 12 | 170 | 1.6 | 6.4 | 0.00 | 0.18 | 0.00 | 95 | 1004.7 |
| 20260509132638 | 12 | 170 | 3.2 | 11.3 | 0.00 | 0.18 | 0.00 | 95 | 1004.7 |
| 20260509132334 | 12 | 182 | 1.6 | 11.3 | 0.00 | 0.18 | 0.00 | 95 | 1004.7 |
| 20260509131545 | 12 | 180 | 1.6 | 6.4 | 0.00 | 0.18 | 0.00 | 95 | 1004.8 |
| 20260509131046 | 12 | 178 | 3.2 | 6.4 | 0.00 | 0.18 | 0.00 | 95 | 1004.7 |
| 20260509130456 | 12 | 178 | 3.2 | 6.4 | 0.00 | 0.18 | 0.00 | 96 | 1004.7 |
| 20260509125927 | 12 | 178 | 3.2 | 6.4 | 0.00 | 0.18 | 0.00 | 96 | 1004.8 |
| 20260509125425 | 12 | 179 | 1.6 | 6.4 | 0.00 | 0.18 | 0.00 | 96 | 1004.8 |
| 20260509124852 | 12 | 178 | 1.6 | 8.0 | 0.00 | 0.18 | 0.00 | 96 | 1004.7 |
| 20260509124842 | 12 | 178 | 4.8 | 9.7 | 0.00 | 0.18 | 0.00 | 96 | 1004.7 |
| 20260509123818 | 12 | 178 | 3.2 | 8.0 | 0.00 | 0.18 | 0.00 | 96 | 1004.9 |
| 20260509123245 | 11 | 176 | 3.2 | 8.0 | 0.00 | 0.18 | 0.00 | 97 | 1004.9 |
| 20260509122747 | 11 | 176 | 3.2 | 8.0 | 0.00 | 0.18 | 0.00 | 97 | 1004.9 |
| 20260509122155 | 11 | 176 | 3.2 | 8.0 | 0.00 | 0.18 | 0.00 | 97 | 1005.0 |
| 20260509121650 | 11 | 176 | 4.8 | 8.0 | 0.00 | 0.18 | 0.00 | 97 | 1004.9 |
| 20260509121150 | 11 | 176 | 4.8 | 8.0 | 0.00 | 0.18 | 0.00 | 97 | 1005.0 |
| 20260509120619 | 11 | 176 | 4.8 | 9.7 | 0.00 | 0.18 | 0.00 | 97 | 1005.1 |
| 20260509120114 | 11 | 175 | 4.8 | 9.7 | 0.00 | 0.18 | 0.00 | 97 | 1005.0 |
| 20260509115559 | 11 | 175 | 4.8 | 9.7 | 0.00 | 0.18 | 0.00 | 97 | 1005.1 |
| 20260509115104 | 11 | 176 | 4.8 | 9.7 | 0.00 | 0.18 | 0.00 | 97 | 1005.1 |
| 20260509114637 | 11 | 176 | 4.8 | 8.0 | 0.00 | 0.18 | 0.00 | 97 | 1005.1 |
| 20260509113530 | 11 | 176 | 4.8 | 8.0 | 0.00 | 0.18 | 0.00 | 97 | 1005.1 |
| 20260509113031 | 11 | 176 | 3.2 | 8.0 | 0.00 | 0.18 | 0.00 | 97 | 1005.1 |
| 20260509112725 | 11 | 176 | 3.2 | 4.8 | 0.00 | 0.18 | 0.00 | 97 | 1005.0 |
| 20260509111956 | 11 | 175 | 1.6 | 4.8 | 0.00 | 0.18 | 0.00 | 97 | 1004.9 |
| 20260509111431 | 11 | 175 | 0.0 | 4.8 | 0.00 | 0.18 | 0.00 | 97 | 1004.9 |
| 20260509110927 | 11 | 175 | 1.6 | 4.8 | 0.00 | 0.18 | 0.00 | 97 | 1004.8 |
| 20260509110409 | 11 | 175 | 3.2 | 6.4 | 0.00 | 0.18 | 0.00 | 97 | 1004.7 |
| 20260509110130 | 11 | 175 | 3.2 | 6.4 | 0.00 | 0.18 | 0.00 | 97 | 1004.7 |
| 20260509105354 | 11 | 175 | 3.2 | 4.8 | 0.00 | 0.18 | 0.00 | 97 | 1004.8 |
| 20260509104857 | 11 | 175 | 1.6 | 4.8 | 0.00 | 0.18 | 0.00 | 97 | 1004.7 |
| 20260509104333 | 11 | 175 | 1.6 | 4.8 | 0.00 | 0.18 | 0.00 | 97 | 1004.7 |
| 20260509103828 | 11 | 175 | 0.0 | 4.8 | 0.00 | 0.18 | 0.00 | 97 | 1004.8 |
| 20260509103527 | 11 | 175 | 0.0 | 0.0 | 0.00 | 0.18 | 0.00 | 97 | 1004.8 |
| 20260509103032 | 11 | 175 | 0.0 | 0.0 | 0.00 | 0.18 | 0.00 | 97 | 1004.9 |
| 20260509102252 | 11 | 175 | 0.0 | 0.0 | 0.00 | 0.18 | 0.00 | 97 | 1004.8 |
| 20260509101741 | 11 | 175 | 0.0 | 0.0 | 0.00 | 0.18 | 0.00 | 97 | 1004.8 |
| 20260509101222 | 11 | 175 | 1.6 | 4.8 | 0.00 | 0.18 | 0.00 | 97 | 1004.8 |
| 20260509100717 | 11 | 175 | 3.2 | 4.8 | 0.00 | 0.18 | 0.00 | 97 | 1004.9 |
| 20260509100218 | 11 | 175 | 3.2 | 4.8 | 0.00 | 0.18 | 0.00 | 97 | 1004.9 |
| 20260509095704 | 11 | 175 | 1.6 | 6.4 | 0.00 | 0.18 | 0.00 | 97 | 1004.9 |
| 20260509095155 | 11 | 175 | 0.0 | 6.4 | 0.00 | 0.18 | 0.00 | 96 | 1004.9 |
| 20260509094609 | 11 | 175 | 1.6 | 4.8 | 0.00 | 0.18 | 0.00 | 97 | 1004.9 |
| 20260509094042 | 11 | 175 | 3.2 | 8.0 | 0.00 | 0.18 | 0.00 | 97 | 1004.9 |
| 20260509093521 | 11 | 175 | 3.2 | 8.0 | 0.00 | 0.18 | 0.00 | 97 | 1005.0 |
| 20260509093022 | 11 | 175 | 4.8 | 8.0 | 0.00 | 0.18 | 0.00 | 97 | 1004.9 |
| 20260509092458 | 11 | 175 | 3.2 | 8.0 | 0.00 | 0.18 | 0.00 | 96 | 1005.1 |
| 20260509091944 | 11 | 175 | 3.2 | 6.4 | 0.00 | 0.18 | 0.00 | 96 | 1005.1 |
| 20260509091443 | 11 | 175 | 3.2 | 6.4 | 0.00 | 0.18 | 0.00 | 96 | 1005.2 |
| 20260509090941 | 11 | 175 | 3.2 | 4.8 | 0.00 | 0.18 | 0.00 | 96 | 1005.3 |
| 20260509090706 | 11 | 175 | 1.6 | 4.8 | 0.00 | 0.18 | 0.00 | 96 | 1005.4 |
| 20260509085940 | 11 | 175 | 1.6 | 4.8 | 0.00 | 0.18 | 0.00 | 96 | 1005.3 |
| 20260509085439 | 11 | 175 | 3.2 | 6.4 | 0.00 | 0.18 | 0.00 | 96 | 1005.3 |
| 20260509085155 | 11 | 175 | 3.2 | 6.4 | 0.00 | 0.18 | 0.00 | 96 | 1005.3 |
| 20260509084431 | 11 | 175 | 3.2 | 6.4 | 0.00 | 0.18 | 0.00 | 96 | 1005.3 |
| 20260509083856 | 11 | 175 | 3.2 | 4.8 | 0.00 | 0.18 | 0.00 | 96 | 1005.4 |
| 20260509083332 | 11 | 175 | 3.2 | 4.8 | 0.00 | 0.18 | 0.00 | 96 | 1005.4 |
| 20260509082756 | 11 | 175 | 3.2 | 6.4 | 0.00 | 0.18 | 0.00 | 96 | 1005.4 |
| 20260509082232 | 11 | 175 | 4.8 | 8.0 | 0.00 | 0.18 | 0.00 | 96 | 1005.5 |
| 20260509081726 | 11 | 175 | 4.8 | 6.4 | 0.00 | 0.18 | 0.00 | 96 | 1005.5 |
| 20260509081221 | 11 | 175 | 3.2 | 6.4 | 0.00 | 0.18 | 0.00 | 96 | 1005.5 |
| 20260509080714 | 11 | 175 | 3.2 | 6.4 | 0.00 | 0.18 | 0.00 | 96 | 1005.4 |
| 20260509080213 | 11 | 175 | 3.2 | 6.4 | 0.00 | 0.18 | 0.00 | 96 | 1005.4 |
| 20260509075643 | 11 | 175 | 4.8 | 9.7 | 0.00 | 0.18 | 0.00 | 96 | 1005.3 |
| 20260509075124 | 11 | 175 | 4.8 | 9.7 | 0.00 | 0.18 | 0.00 | 96 | 1005.3 |
| 20260509074611 | 11 | 180 | 3.2 | 8.0 | 0.00 | 0.18 | 0.00 | 96 | 1005.3 |
| 20260509074114 | 11 | 180 | 4.8 | 11.3 | 0.00 | 0.18 | 0.00 | 96 | 1005.3 |
| 20260509073528 | 11 | 179 | 4.8 | 11.3 | 0.00 | 0.18 | 0.00 | 96 | 1005.3 |
| 20260509073001 | 11 | 183 | 4.8 | 9.7 | 0.00 | 0.18 | 0.00 | 96 | 1005.4 |
| 20260509072502 | 11 | 192 | 4.8 | 9.7 | 0.00 | 0.18 | 0.00 | 96 | 1005.6 |
| 20260509072004 | 11 | 187 | 4.8 | 8.0 | 0.00 | 0.18 | 0.00 | 96 | 1005.5 |
| 20260509071455 | 11 | 188 | 4.8 | 6.4 | 0.00 | 0.18 | 0.00 | 96 | 1005.5 |
| 20260509070958 | 11 | 188 | 4.8 | 8.0 | 0.00 | 0.18 | 0.00 | 96 | 1005.6 |
| 20260509070421 | 11 | 190 | 4.8 | 9.7 | 0.00 | 0.18 | 0.00 | 96 | 1005.6 |